Terminal Aerodrome Forecast
Issued by NWS Charleston, WV

Current Version | Previous Version | Text Only | Print | Product List | Glossary Off
Versions: 1 2 3 4 5 6 7 8 9 10 11 12 13 14 15 16 17 18 19 20 21 22 23 24 25 26

000
FTUS41 KRLX 271000 AAA
TAFBKW
TAF AMD
KBKW 271004Z 2710/2806 32008KT 4SM -SN BKN015
     FM271200 30007KT 6SM -SN BKN015
     FM271500 31008KT P6SM BKN020
     FM272300 32005KT P6SM SCT030
     FM280100 VRB03KT P6SM BKN250=

USA.gov is the U.S. government's official web portal to all federal, state and local government web resources and services.